Midland Airpark, TX

10:58 AM CDT on August 17, 2017 (GMT -0500)
Midland

Weather History for KMDD - September, 2012

Change the Weather History Date:

Thursday, September 20, 2012

  Actual Average (KMAF) Record (KMAF)
Temperature  
Mean Temperature 79 °F -  
Max Temperature 94 °F 84 °F 107 °F (1953)
Min Temperature 64 °F 60 °F 42 °F (1971)
Cooling Degree Days 14    
Growing Degree Days 29 (Base 50)    
Moisture  
Dew Point 47 °F    
Average Humidity 37    
Maximum Humidity 71    
Minimum Humidity 13    
Precipitation  
Precipitation 0.00 in - - ()
Sea Level Pressure  
Sea Level Pressure 30.06 in    
Wind  
Wind Speed 11 mph (South)    
Max Wind Speed 17 mph    
Max Gust Speed 23 mph    
Visibility 10 miles    
Events      
Averages and records for this station are not official NWS values.
T = Trace of Precipitation, MM = Missing Value Source: NWS Daily Summary

Daily Weather History Graph

Daily Weather History Graph

Search for Another Location

Airport or City:

Trip Planner

Search our weather history database for the weather conditions in past years. The results will help you decide how hot, cold, wet, or windy it might be!

Date:

Astronomy

Sep. 20, 2012 Rise Set
Actual Time 7:35 AM CDT 7:46 PM CDT
Civil Twilight 7:11 AM CDT 8:11 PM CDT
Nautical Twilight 6:42 AM CDT 8:39 PM CDT
Astronomical Twilight 6:13 AM CDT 9:08 PM CDT
Moon 12:35 PM CDT (9/20) 11:11 PM CDT (9/20)
Length of Visible Light 13h 00m
Length of Day
12h 11m
Waxing Crescent, 27% of the Moon is Illuminated
Sep 20
Waxing Crescent
Sep 22
First Quarter
Sep 29
Full
Oct 8
Last Quarter
Oct 15
New

Hourly Weather History & Observations

Time (CDT) Temp. Heat Index Dew Point Humidity Pressure Visibility Wind Dir Wind Speed Gust Speed Precip Events Conditions
12:15 AM 76.3 °F - 47.8 °F 37% 30.10 in 10.0 mi SSW 10.4 mph 17.3 mph N/A   Clear
12:35 AM 75.6 °F - 47.7 °F 37% 30.09 in 10.0 mi South 13.8 mph - N/A   Clear
12:55 AM 75.2 °F - 48.4 °F 39% 30.09 in 10.0 mi South 11.5 mph 18.4 mph N/A   Clear
1:15 AM 75.0 °F - 48.7 °F 39% 30.08 in 10.0 mi South 13.8 mph - N/A   Clear
1:35 AM 74.3 °F - 49.1 °F 41% 30.08 in 10.0 mi South 12.7 mph 17.3 mph N/A   Clear
1:55 AM 73.6 °F - 49.3 °F 42% 30.07 in 10.0 mi South 12.7 mph - N/A   Clear
2:15 AM 73.0 °F - 49.8 °F 44% 30.07 in 10.0 mi South 11.5 mph - N/A   Clear
2:35 AM 72.5 °F - 50.2 °F 45% 30.07 in 10.0 mi SSW 9.2 mph - N/A   Clear
2:55 AM 72.0 °F - 50.7 °F 47% 30.08 in 10.0 mi SSW 8.1 mph - N/A   Clear
3:15 AM 71.4 °F - 50.9 °F 48% 30.08 in 10.0 mi SSW 6.9 mph - N/A   Clear
3:35 AM 70.5 °F - 51.3 °F 50% 30.07 in 10.0 mi SSW 4.6 mph - N/A   Clear
3:55 AM 70.0 °F - 51.8 °F 52% 30.07 in 10.0 mi SSW 6.9 mph - N/A   Clear
4:15 AM 69.6 °F - 51.8 °F 53% 30.07 in 10.0 mi SSW 6.9 mph - N/A   Clear
4:35 AM 69.3 °F - 52.2 °F 54% 30.07 in 10.0 mi SSW 10.4 mph - N/A   Clear
4:55 AM 69.1 °F - 52.5 °F 55% 30.06 in 10.0 mi SSW 9.2 mph - N/A   Clear
5:15 AM 68.7 °F - 53.1 °F 57% 30.06 in 10.0 mi SSW 9.2 mph - N/A   Clear
5:35 AM 68.4 °F - 53.6 °F 59% 30.06 in 10.0 mi South 6.9 mph - N/A   Clear
5:55 AM 67.6 °F - 54.0 °F 61% 30.07 in 10.0 mi South 8.1 mph - N/A   Clear
6:15 AM 66.9 °F - 54.0 °F 63% 30.07 in 10.0 mi South 8.1 mph - N/A   Clear
6:35 AM 66.2 °F - 53.8 °F 64% 30.08 in 10.0 mi South 3.5 mph - N/A   Clear
6:55 AM 65.7 °F - 54.0 °F 66% 30.09 in 10.0 mi South 5.8 mph - N/A   Clear
7:35 AM 64.6 °F - 54.7 °F 70% 30.09 in 10.0 mi SSE 9.2 mph - N/A   Clear
7:55 AM 65.3 °F - 55.6 °F 71% 30.10 in 10.0 mi SSE 9.2 mph - N/A   Clear
8:15 AM 66.2 °F - 56.3 °F 70% 30.10 in 10.0 mi SSE 11.5 mph - N/A   Clear
8:35 AM 67.3 °F - 56.5 °F 68% 30.10 in 10.0 mi SSE 13.8 mph - N/A   Clear
8:55 AM 68.0 °F - 56.7 °F 67% 30.10 in 10.0 mi South 12.7 mph - N/A   Clear
9:15 AM 69.3 °F - 57.0 °F 65% 30.10 in 10.0 mi SSE 15.0 mph 20.7 mph N/A   Clear
9:35 AM 70.9 °F - 57.2 °F 62% 30.10 in 10.0 mi South 17.3 mph - N/A   Clear
9:55 AM 72.9 °F - 57.2 °F 58% 30.10 in 10.0 mi South 17.3 mph 21.9 mph N/A   Clear
10:15 AM 74.7 °F - 56.5 °F 53% 30.11 in 10.0 mi South 15.0 mph 23.0 mph N/A   Clear
10:35 AM 76.3 °F - 56.5 °F 50% 30.11 in 10.0 mi South 15.0 mph 20.7 mph N/A   Clear
10:55 AM 78.1 °F - 55.8 °F 46% 30.12 in 10.0 mi South 16.1 mph 19.6 mph N/A   Clear
11:15 AM 80.2 °F 80.3 °F 55.0 °F 42% 30.12 in 10.0 mi South 10.4 mph - N/A   Clear
11:35 AM 81.9 °F 81.0 °F 53.2 °F 37% 30.12 in 10.0 mi South 13.8 mph 18.4 mph N/A   Clear
11:55 AM 83.7 °F - 50.9 °F 32% 30.10 in 10.0 mi South 15.0 mph - N/A   Clear
12:15 PM 85.3 °F - 49.6 °F 29% 30.10 in 10.0 mi South 12.7 mph - N/A   Clear
12:35 PM 86.7 °F - 48.9 °F 27% 30.09 in 10.0 mi South 11.5 mph 17.3 mph N/A   Clear
12:55 PM 88.3 °F - 48.6 °F 25% 30.09 in 10.0 mi South 12.7 mph - N/A   Clear
1:15 PM 89.2 °F - 46.9 °F 23% 30.08 in 10.0 mi South 9.2 mph - N/A   Clear
1:35 PM 90.3 °F - 46.4 °F 22% 30.07 in 10.0 mi SSW 10.4 mph - N/A   Clear
1:55 PM 91.0 °F - 45.1 °F 20% 30.07 in 10.0 mi SSW 6.9 mph - N/A   Clear
2:15 PM 91.6 °F - 44.6 °F 20% 30.05 in 10.0 mi SSW 11.5 mph 21.9 mph N/A   Clear
2:35 PM 92.5 °F - 43.7 °F 18% 30.04 in 10.0 mi SSW 12.7 mph 20.7 mph N/A   Clear
2:55 PM 93.0 °F - 43.2 °F 18% 30.03 in 10.0 mi South 9.2 mph 17.3 mph N/A   Clear
3:15 PM 93.6 °F - 41.7 °F 17% 30.03 in 10.0 mi SSE 9.2 mph 16.1 mph N/A   Clear
3:35 PM 93.9 °F - 39.6 °F 15% 30.02 in 10.0 mi South 12.7 mph 16.1 mph N/A   Clear
3:55 PM 94.3 °F - 38.7 °F 14% 30.01 in 10.0 mi SSE 6.9 mph - N/A   Clear
4:15 PM 94.1 °F - 37.6 °F 14% 30.01 in 10.0 mi SSW 8.1 mph - N/A   Clear
4:35 PM 94.3 °F - 36.5 °F 13% 30.00 in 10.0 mi South 10.4 mph 17.3 mph N/A   Clear
4:55 PM 94.5 °F - 36.1 °F 13% 30.00 in 10.0 mi South 8.1 mph 17.3 mph N/A   Clear
5:15 PM 94.3 °F - 35.2 °F 13% 29.99 in 10.0 mi SE 5.8 mph 16.1 mph N/A   Clear
5:35 PM 94.1 °F - 35.2 °F 13% 29.99 in 10.0 mi South 9.2 mph - N/A   Clear
5:55 PM 93.9 °F - 34.9 °F 13% 29.99 in 10.0 mi South 12.7 mph - N/A   Clear
6:15 PM 93.7 °F - 34.7 °F 13% 29.99 in 10.0 mi South 8.1 mph - N/A   Clear
6:35 PM 93.0 °F - 34.9 °F 13% 29.99 in 10.0 mi South 8.1 mph - N/A   Clear
6:55 PM 92.3 °F - 36.0 °F 14% 29.99 in 10.0 mi South 12.7 mph 18.4 mph N/A   Clear
7:15 PM 91.4 °F - 38.5 °F 16% 29.99 in 10.0 mi SSE 16.1 mph 20.7 mph N/A   Clear
7:55 PM 88.2 °F - 41.9 °F 20% 29.99 in 10.0 mi SSE 12.7 mph - N/A   Clear
8:15 PM 86.9 °F - 42.4 °F 21% 29.99 in 10.0 mi SSE 11.5 mph 18.4 mph N/A   Clear
8:35 PM 86.0 °F - 43.0 °F 22% 30.00 in 10.0 mi South 11.5 mph - N/A   Clear
8:55 PM 85.1 °F - 43.2 °F 23% 30.00 in 10.0 mi SSE 15.0 mph 18.4 mph N/A   Clear
9:15 PM 84.0 °F - 43.7 °F 24% 30.01 in 10.0 mi SSE 12.7 mph - N/A   Clear
9:35 PM 82.9 °F - 44.1 °F 25% 30.01 in 10.0 mi South 12.7 mph - N/A   Clear
9:55 PM 82.2 °F - 44.4 °F 26% 30.02 in 10.0 mi South 13.8 mph - N/A   Clear
10:15 PM 81.5 °F - 44.6 °F 27% 30.02 in 10.0 mi South 12.7 mph - N/A   Clear
10:35 PM 80.4 °F - 45.0 °F 29% 30.03 in 10.0 mi South 11.5 mph - N/A   Clear
10:55 PM 79.7 °F - 45.3 °F 30% 30.03 in 10.0 mi South 12.7 mph - N/A   Clear
11:15 PM 79.3 °F - 45.3 °F 30% 30.03 in 10.0 mi South 10.4 mph - N/A   Clear
11:35 PM 78.8 °F - 45.1 °F 30% 30.03 in 10.0 mi South 12.7 mph 18.4 mph N/A   Clear
11:55 PM 78.1 °F - 44.8 °F 31% 30.03 in 10.0 mi South 12.7 mph - N/A   Clear